When you browse on this site, cookies collect data to enhance your experience and personalize the content and advertising you see.
Visit our Privacy Policy to learn more. By continuing to use the site, you agree to this use of cookies and data.
  • în România
  • Lista ţărilor
  • Pe 7 zile
  • Temperatura apei
  • Meteo pe hartă
  • Widget-uri
  • user-avatar
    Intrare

    Meteo pe oră la Shaki

    Astăzi, 30 Mai, Sâmbătă

    Timp Temperatura Precipitaţii Vânt Presiune Umiditate
    00:00 +23°C° 0.5 mm 2 m/s 729 mmHg 69%
    01:00 +23°C° 0.1 mm 2 m/s 729 mmHg 70%
    02:00 +21°C° 0.1 mm 2 m/s 729 mmHg 71%
    03:00 +21°C° 0 mm 2 m/s 729 mmHg 71%
    04:00 +23°C° 0 mm 2 m/s 730 mmHg 70%
    05:00 +24°C° 0 mm 3 m/s 730 mmHg 70%
    06:00 +24°C° 0 mm 3 m/s 731 mmHg 70%
    07:00 +26°C° 0 mm 3 m/s 731 mmHg 63%
    08:00 +28°C° 0 mm 4 m/s 731 mmHg 56%
    09:00 +29°C° 0 mm 4 m/s 731 mmHg 50%
    10:00 +32°C° 0 mm 4 m/s 732 mmHg 46%
    11:00 +33°C° 0 mm 3 m/s 732 mmHg 41%
    12:00 +34°C° 0 mm 3 m/s 732 mmHg 37%
    13:00 +35°C° 0 mm 3 m/s 732 mmHg 36%
    14:00 +35°C° 0 mm 3 m/s 732 mmHg 34%
    15:00 +36°C° 0 mm 3 m/s 732 mmHg 33%
    16:00 +35°C° 0.2 mm 3 m/s 732 mmHg 36%
    17:00 +34°C° 0.2 mm 3 m/s 732 mmHg 40%
    18:00 +33°C° 0.2 mm 3 m/s 732 mmHg 44%
    19:00 +29°C° 0.4 mm 3 m/s 733 mmHg 53%
    20:00 +27°C° 0.4 mm 4 m/s 733 mmHg 61%
    21:00 +23°C° 0.4 mm 4 m/s 733 mmHg 70%
    22:00 +22°C° 0.1 mm 4 m/s 733 mmHg 72%
    23:00 +21°C° 0.1 mm 3 m/s 734 mmHg 73%

    Mâine, 31 Mai, Duminică

    Timp Temperatura Precipitaţii Vânt Presiune Umiditate
    00:00 +20°C° 0.1 mm 2 m/s 734 mmHg 75%
    01:00 +20°C° 0.1 mm 2 m/s 734 mmHg 77%
    02:00 +19°C° 0.1 mm 2 m/s 734 mmHg 79%
    03:00 +20°C° 0.1 mm 1 m/s 734 mmHg 82%
    04:00 +21°C° 0 mm 1 m/s 735 mmHg 78%
    05:00 +21°C° 0 mm 1 m/s 735 mmHg 75%
    06:00 +22°C° 0 mm 1 m/s 735 mmHg 72%
    07:00 +23°C° 0 mm 1 m/s 735 mmHg 68%
    08:00 +25°C° 0 mm 2 m/s 735 mmHg 64%
    09:00 +26°C° 0 mm 2 m/s 735 mmHg 59%
    10:00 +27°C° 0 mm 3 m/s 735 mmHg 56%
    11:00 +28°C° 0 mm 3 m/s 735 mmHg 53%
    12:00 +29°C° 0 mm 3 m/s 735 mmHg 49%
    13:00 +29°C° 0 mm 3 m/s 735 mmHg 48%
    14:00 +30°C° 0 mm 3 m/s 734 mmHg 47%
    15:00 +30°C° 0 mm 2 m/s 734 mmHg 45%
    16:00 +29°C° 0 mm 2 m/s 734 mmHg 47%
    17:00 +29°C° 0 mm 2 m/s 734 mmHg 49%
    18:00 +29°C° 0 mm 2 m/s 734 mmHg 51%
    19:00 +27°C° 0 mm 2 m/s 734 mmHg 55%
    20:00 +25°C° 0 mm 2 m/s 734 mmHg 58%
    21:00 +24°C° 0 mm 3 m/s 735 mmHg 62%
    22:00 +22°C° 0 mm 3 m/s 734 mmHg 65%
    23:00 +21°C° 0 mm 3 m/s 734 mmHg 68%

    Poimâine, 1 Iunie, Luni

    Timp Temperatura Precipitaţii Vânt Presiune Umiditate
    00:00 +20°C° 0 mm 3 m/s 734 mmHg 71%
    01:00 +19°C° 0 mm 2 m/s 734 mmHg 71%
    02:00 +19°C° 0 mm 2 m/s 734 mmHg 72%
    03:00 +19°C° 0 mm 2 m/s 734 mmHg 72%
    04:00 +20°C° 0 mm 1 m/s 734 mmHg 70%
    05:00 +21°C° 0 mm 1 m/s 734 mmHg 67%
    06:00 +22°C° 0 mm 1 m/s 734 mmHg 65%
    07:00 +23°C° 0 mm 1 m/s 734 mmHg 60%
    08:00 +25°C° 0 mm 2 m/s 733 mmHg 55%
    09:00 +26°C° 0 mm 2 m/s 733 mmHg 51%
    10:00 +27°C° 0 mm 2 m/s 733 mmHg 48%
    11:00 +29°C° 0 mm 2 m/s 733 mmHg 45%
    12:00 +30°C° 0 mm 2 m/s 733 mmHg 43%
    13:00 +30°C° 0 mm 2 m/s 732 mmHg 41%
    14:00 +31°C° 0 mm 2 m/s 732 mmHg 40%
    15:00 +31°C° 0 mm 2 m/s 731 mmHg 38%
    16:00 +31°C° 0 mm 2 m/s 731 mmHg 40%
    17:00 +30°C° 0 mm 2 m/s 731 mmHg 42%
    18:00 +30°C° 0 mm 2 m/s 731 mmHg 45%
    19:00 +28°C° 0 mm 2 m/s 731 mmHg 47%
    20:00 +26°C° 0 mm 2 m/s 731 mmHg 50%
    21:00 +24°C° 0 mm 2 m/s 731 mmHg 53%
    22:00 +24°C° 0 mm 2 m/s 731 mmHg 53%
    23:00 +23°C° 0 mm 2 m/s 731 mmHg 54%

    2 Iunie, Marţi

    Timp Temperatura Precipitaţii Vânt Presiune Umiditate
    00:00 +22°C° 0 mm 1 m/s 731 mmHg 55%
    01:00 +22°C° 0 mm 1 m/s 730 mmHg 56%
    02:00 +22°C° 0 mm 1 m/s 730 mmHg 57%
    03:00 +19°C° 0 mm 0 m/s 730 mmHg 57%
    04:00 +20°C° 0 mm 0 m/s 730 mmHg 56%
    05:00 +21°C° 0 mm 0 m/s 730 mmHg 55%
    06:00 +22°C° 0 mm 0 m/s 730 mmHg 54%
    07:00 +26°C° 0 mm 1 m/s 730 mmHg 50%
    08:00 +27°C° 0 mm 1 m/s 730 mmHg 46%
    09:00 +29°C° 0 mm 2 m/s 730 mmHg 42%
    10:00 +31°C° 0 mm 2 m/s 730 mmHg 38%
    11:00 +32°C° 0 mm 2 m/s 730 mmHg 34%
    12:00 +35°C° 0 mm 2 m/s 730 mmHg 29%
    13:00 +36°C° 0 mm 2 m/s 729 mmHg 29%
    14:00 +36°C° 0 mm 2 m/s 729 mmHg 28%
    15:00 +36°C° 0 mm 3 m/s 728 mmHg 27%
    16:00 +34°C° 0.1 mm 3 m/s 729 mmHg 33%
    17:00 +32°C° 0.1 mm 4 m/s 729 mmHg 39%
    18:00 +29°C° 0.1 mm 5 m/s 729 mmHg 45%
    19:00 +28°C° 0.4 mm 4 m/s 729 mmHg 47%
    20:00 +27°C° 0.4 mm 3 m/s 729 mmHg 50%
    21:00 +26°C° 0.4 mm 2 m/s 730 mmHg 52%
    22:00 +25°C° 0.1 mm 2 m/s 730 mmHg 54%
    23:00 +25°C° 0.1 mm 2 m/s 729 mmHg 56%

    3 Iunie, Miercuri

    Timp Temperatura Precipitaţii Vânt Presiune Umiditate
    00:00 +24°C° 0.1 mm 2 m/s 729 mmHg 58%
    01:00 +23°C° 0.1 mm 2 m/s 729 mmHg 60%
    02:00 +21°C° 0.1 mm 2 m/s 729 mmHg 62%
    03:00 +21°C° 0.1 mm 2 m/s 729 mmHg 64%
    04:00 +21°C° 0.1 mm 2 m/s 729 mmHg 64%
    05:00 +23°C° 0.1 mm 1 m/s 729 mmHg 65%
    06:00 +24°C° 0.1 mm 1 m/s 729 mmHg 65%
    07:00 +26°C° 0 mm 1 m/s 729 mmHg 58%
    08:00 +28°C° 0 mm 1 m/s 729 mmHg 51%
    09:00 +30°C° 0 mm 1 m/s 729 mmHg 44%
    10:00 +31°C° 0 mm 2 m/s 729 mmHg 40%
    11:00 +32°C° 0 mm 2 m/s 729 mmHg 37%
    12:00 +35°C° 0 mm 3 m/s 729 mmHg 34%
    13:00 +35°C° 0 mm 3 m/s 729 mmHg 32%
    14:00 +36°C° 0 mm 2 m/s 729 mmHg 30%
    15:00 +36°C° 0 mm 2 m/s 729 mmHg 28%
    16:00 +36°C° 0 mm 3 m/s 729 mmHg 30%
    17:00 +35°C° 0 mm 3 m/s 729 mmHg 31%
    18:00 +34°C° 0 mm 3 m/s 729 mmHg 33%
    19:00 +31°C° 0 mm 3 m/s 730 mmHg 34%
    20:00 +30°C° 0 mm 3 m/s 730 mmHg 35%
    21:00 +28°C° 0 mm 4 m/s 730 mmHg 36%
    22:00 +27°C° 0.4 mm 3 m/s 730 mmHg 44%
    23:00 +25°C° 0.4 mm 3 m/s 730 mmHg 51%

    4 Iunie, Joi

    Timp Temperatura Precipitaţii Vânt Presiune Umiditate
    00:00 +24°C° 0.4 mm 2 m/s 730 mmHg 58%
    01:00 +23°C° 0.1 mm 2 m/s 729 mmHg 58%
    02:00 +23°C° 0.1 mm 1 m/s 729 mmHg 59%
    03:00 +21°C° 0.1 mm 0 m/s 729 mmHg 59%
    04:00 +24°C° 0 mm 1 m/s 729 mmHg 59%
    05:00 +24°C° 0 mm 1 m/s 729 mmHg 58%
    06:00 +25°C° 0 mm 1 m/s 729 mmHg 58%
    07:00 +27°C° 0 mm 1 m/s 729 mmHg 52%
    08:00 +29°C° 0 mm 2 m/s 729 mmHg 46%
    09:00 +31°C° 0 mm 2 m/s 729 mmHg 40%
    10:00 +32°C° 0 mm 2 m/s 729 mmHg 37%
    11:00 +35°C° 0 mm 2 m/s 729 mmHg 33%
    12:00 +36°C° 0 mm 2 m/s 729 mmHg 30%
    13:00 +37°C° 0 mm 2 m/s 729 mmHg 29%
    14:00 +37°C° 0 mm 2 m/s 730 mmHg 28%
    15:00 +37°C° 0 mm 2 m/s 730 mmHg 27%
    16:00 +37°C° 0.1 mm 2 m/s 730 mmHg 30%
    17:00 +36°C° 0.1 mm 2 m/s 730 mmHg 33%
    18:00 +35°C° 0.1 mm 2 m/s 730 mmHg 36%
    19:00 +31°C° 0.4 mm 3 m/s 731 mmHg 45%
    20:00 +28°C° 0.4 mm 4 m/s 731 mmHg 54%
    21:00 +25°C° 0.4 mm 4 m/s 732 mmHg 62%
    22:00 +25°C° 0.1 mm 4 m/s 732 mmHg 66%
    23:00 +24°C° 0.1 mm 3 m/s 732 mmHg 70%
    Arată mai mult